This is the latest recevied weather packets stored in our database for station/object KC0UFP. If no packets are shown the sender has not sent any weather packets the latest 10 day(s).
| Time | Temp. | Humidity | Pressure | Rain* | Wind** | Luminosity | Snow |
|---|---|---|---|---|---|---|---|
| 1778047613 | 9.44° C | 99% | 1010.1 hPa | 0 mm | - | 0 W/m² | - |
| 1778047309 | 9.44° C | 99% | 1009.9 hPa | 0 mm | - | 0 W/m² | - |
| 1778047007 | 9.44° C | 99% | 1010 hPa | 0 mm | - | 0 W/m² | - |
| 1778046704 | 9.44° C | 99% | 1010.3 hPa | 0 mm | - | 0 W/m² | - |
| 1778046401 | 9.44° C | 99% | 1010.1 hPa | 0.51 mm | - | 0 W/m² | - |
| 1778046097 | 9.44° C | 99% | 1010.6 hPa | 1.78 mm | - | 0 W/m² | - |
| 1778045794 | 9.44° C | 99% | 1010.1 hPa | 1.78 mm | - | 0 W/m² | - |
| 1778045493 | 9.44° C | 99% | 1009.7 hPa | 1.78 mm | - | 0 W/m² | - |
| 1778045191 | 9.44° C | 99% | 1009.8 hPa | 1.78 mm | - | 0 W/m² | - |
| 1778044889 | 9.44° C | 99% | 1009.3 hPa | 0 mm | - | 0 W/m² | - |
| 1778044586 | 9.44° C | 99% | 1009.7 hPa | 0 mm | - | 0 W/m² | - |
| 1778044281 | 9.44° C | 99% | 1009.7 hPa | 0 mm | - | 0 W/m² | - |
| 1778043980 | 9.44° C | 99% | 1009.5 hPa | 0 mm | - | 0 W/m² | - |
| 1778043677 | 9.44° C | 99% | 1009.5 hPa | 0 mm | - | 0 W/m² | - |
| 1778043374 | 9.44° C | 99% | 1009.4 hPa | 0 mm | - | 0 W/m² | - |
| 1778043070 | 9.44° C | 99% | 1009.9 hPa | 0 mm | - | 0 W/m² | - |
| 1778042768 | 9.44° C | 99% | 1009.4 hPa | 0 mm | - | 0 W/m² | - |
| 1778042464 | 10° C | 99% | 1009.3 hPa | 0.51 mm | - | 0 W/m² | - |
| 1778042162 | 10° C | 99% | 1009.2 hPa | 0.51 mm | - | 0 W/m² | - |
| 1778041860 | 10° C | 99% | 1008.9 hPa | 0.51 mm | - | 0 W/m² | - |
| 1778041559 | 10° C | 99% | 1008.9 hPa | 1.27 mm | - | 0 W/m² | - |
| 1778041256 | 10° C | 99% | 1008.8 hPa | 1.27 mm | - | 0 W/m² | - |
| 1778040955 | 10° C | 99% | 1008.9 hPa | 1.78 mm | - | 0 W/m² | - |
| 1778040651 | 10° C | 99% | 1008.5 hPa | 1.27 mm | - | 0 W/m² | - |
| 1778040349 | 10° C | 99% | 1008.5 hPa | 0.51 mm | - | 0 W/m² | - |
* Rain latest hour (hover to see other rain measurements)
** Current wind speed in m/s (hover to see current wind gust speed)